Cahokia, IL

10:49 AM CST on December 11, 2019 (GMT -0600)
Saint Louis Downtown

Weather History for KCPS - October, 2019

Change the Weather History Date:

Tuesday, October 29, 2019

  Actual Average Record
Temperature  
Mean Temperature 47 °F -  
Max Temperature 55 °F 65 °F 84 °F (2004)
Min Temperature 39 °F 45 °F 27 °F (2017)
Degree Days  
Heating Degree Days 18    
Moisture  
Dew Point 40 °F    
Average Humidity 85    
Maximum Humidity 93    
Minimum Humidity 76    
Precipitation  
Precipitation 0.39 in - - ()
Sea Level Pressure  
Sea Level Pressure 30.17 in    
Wind  
Wind Speed 8 mph (NNW)    
Max Wind Speed 18 mph    
Max Gust Speed 25 mph    
Visibility 9 miles    
Events Rain    
Averages and records for this station are not official NWS values.
T = Trace of Precipitation, MM = Missing Value Source: NWS Daily Summary

Daily Weather History Graph

Daily Weather History Graph

Search for Another Location

Airport or City:

Astronomy

Oct. 29, 2019 Rise Set
Actual Time 7:23 AM CDT 6:04 PM CDT
Civil Twilight 6:56 AM CDT 6:31 PM CDT
Nautical Twilight 6:25 AM CDT 7:02 PM CDT
Astronomical Twilight 5:54 AM CDT 7:33 PM CDT
Moon 8:56 AM CDT (10/29) 7:29 PM CDT (10/29)
Length of Visible Light 11h 35m
Length of Day
10h 40m
Waxing Crescent, 3% of the Moon is Illuminated
Oct 29
Waxing Crescent
Nov 4
First Quarter
Nov 12
Full
Nov 19
Last Quarter
Nov 26
New

Hourly Weather History & Observations

Time (CDT) Temp. Windchill Dew Point Humidity Pressure Visibility Wind Dir Wind Speed Gust Speed Precip Events Conditions
12:53 AM 53.1 °F - 50.0 °F 89% 29.99 in 10.0 mi South 4.6 mph - N/A   Mostly Cloudy
1:37 AM 54.0 °F - 50.0 °F 86% 30.01 in 10.0 mi South 5.8 mph - N/A   Overcast
1:53 AM 54.0 °F - 50.0 °F 86% 30.02 in 10.0 mi South 5.8 mph - N/A   Overcast
2:17 AM 54.0 °F - 51.1 °F 90% 30.01 in 10.0 mi SSW 4.6 mph - N/A   Overcast
2:50 AM 55.4 °F - 51.8 °F 88% 30.03 in 10.0 mi WSW 5.8 mph - N/A   Overcast
2:53 AM 55.0 °F - 51.1 °F 86% 30.04 in 10.0 mi West 9.2 mph - N/A   Overcast
3:01 AM 48.9 °F - 45.0 °F 86% 30.04 in 7.0 mi NW 17.3 mph 25.3 mph 0.00 in Rain Light Rain
3:08 AM 46.9 °F - 43.0 °F 86% 30.05 in 10.0 mi WNW 18.4 mph - 0.00 in   Overcast
3:22 AM 45.0 °F 37.9 °F 42.1 °F 90% 30.06 in 8.0 mi NW 16.1 mph - 0.00 in   Overcast
3:53 AM 44.1 °F 39.0 °F 42.1 °F 93% 30.08 in 5.0 mi NW 9.2 mph - 0.01 in   Overcast
4:53 AM 42.1 °F 36.6 °F 39.9 °F 92% 30.11 in 10.0 mi NW 9.2 mph - N/A   Overcast
5:44 AM 41.0 °F 34.7 °F 37.9 °F 89% 30.13 in 10.0 mi NNW 10.4 mph - N/A   Overcast
5:53 AM 41.0 °F 34.3 °F 37.9 °F 89% 30.14 in 10.0 mi NNW 11.5 mph - N/A   Overcast
6:53 AM 41.0 °F 35.2 °F 37.0 °F 86% 30.16 in 10.0 mi NNW 9.2 mph - N/A   Overcast
7:53 AM 41.0 °F 34.3 °F 37.0 °F 86% 30.20 in 10.0 mi NNW 11.5 mph - N/A   Overcast
8:53 AM 41.0 °F 34.7 °F 37.9 °F 89% 30.24 in 10.0 mi NNW 10.4 mph - N/A   Overcast
9:21 AM 41.0 °F 37.1 °F 37.9 °F 89% 30.24 in 10.0 mi North 5.8 mph - N/A   Overcast
9:53 AM 42.1 °F 37.1 °F 37.9 °F 85% 30.24 in 10.0 mi North 8.1 mph - N/A   Overcast
10:53 AM 42.1 °F 35.7 °F 37.0 °F 82% 30.26 in 10.0 mi NNW 11.5 mph - N/A   Overcast
11:53 AM 42.1 °F 36.6 °F 36.0 °F 79% 30.27 in 10.0 mi North 9.2 mph - N/A   Overcast
12:53 PM 42.1 °F 37.7 °F 36.0 °F 79% 30.27 in 10.0 mi North 6.9 mph - N/A   Overcast
1:00 PM 43.0 °F 38.8 °F 36.0 °F 76% 30.26 in 10.0 mi North 6.9 mph - N/A   Overcast
1:53 PM 42.1 °F 36.1 °F 36.0 °F 79% 30.26 in 10.0 mi North 10.4 mph - N/A   Overcast
2:11 PM 42.1 °F 37.7 °F 35.1 °F 76% 30.25 in 10.0 mi North 6.9 mph - N/A   Overcast
2:53 PM 42.1 °F 38.4 °F 35.1 °F 76% 30.24 in 10.0 mi North 5.8 mph - N/A   Overcast
3:12 PM 43.0 °F 38.2 °F 36.0 °F 76% 30.23 in 10.0 mi NNE 8.1 mph - N/A   Overcast
3:53 PM 42.1 °F 37.1 °F 35.1 °F 76% 30.26 in 10.0 mi NNE 8.1 mph - N/A   Overcast
4:53 PM 42.1 °F 36.6 °F 35.1 °F 76% 30.24 in 10.0 mi NE 9.2 mph - N/A   Overcast
5:53 PM 41.0 °F 34.7 °F 35.1 °F 79% 30.23 in 10.0 mi NNE 10.4 mph - N/A   Overcast
6:53 PM 41.0 °F 34.3 °F 35.1 °F 79% 30.24 in 9.0 mi NNE 11.5 mph - N/A   Overcast
7:53 PM 39.9 °F 32.9 °F 37.0 °F 89% 30.25 in 3.0 mi North 11.5 mph - 0.02 in Rain Light Rain
8:53 PM 39.0 °F 31.8 °F 37.0 °F 93% 30.23 in 4.0 mi NNE 11.5 mph - 0.07 in Rain Light Rain
9:53 PM 39.0 °F 32.8 °F 37.0 °F 93% 30.25 in 4.0 mi NNE 9.2 mph - 0.17 in Rain Rain
10:53 PM 39.0 °F 35.7 °F 37.0 °F 93% 30.27 in 10.0 mi Variable 4.6 mph - 0.08 in Rain Light Rain
11:46 PM 39.0 °F 34.0 °F 37.0 °F 93% 30.24 in 10.0 mi NNE 6.9 mph - 0.04 in   Overcast
11:53 PM 39.0 °F 33.4 °F 37.0 °F 93% 30.25 in 10.0 mi North 8.1 mph - 0.04 in   Overcast